| time (UTC) | temp F | wind direction | speed MPH | gust MPH | rain 1hr in | rain 24hr in | rain mn in | humidity % | barometer mb |
| 20260507051016 | 42 | 334 | 1.0 | 2.0 | 0.00 | 0.00 | 0.00 | 86 | 1011.8 |
| 20260507050534 | 42 | 0.0 | 0.0 | 0.00 | 0.00 | 0.00 | 86 | 1011.7 | |
| 20260507050033 | 42 | 0.0 | 0.0 | 0.00 | 0.00 | 0.00 | 86 | 1011.8 | |
| 20260507045531 | 42 | 343 | 0.0 | 1.0 | 0.00 | 0.00 | 0.00 | 87 | 1011.8 |
| 20260507045030 | 42 | 334 | 0.0 | 1.0 | 0.00 | 0.00 | 0.00 | 87 | 1011.7 |
| 20260507044528 | 42 | 0.0 | 0.0 | 0.00 | 0.00 | 0.00 | 87 | 1011.6 | |
| 20260507044026 | 42 | 0.0 | 0.0 | 0.00 | 0.00 | 0.00 | 88 | 1011.5 | |
| 20260507043525 | 42 | 0.0 | 0.0 | 0.00 | 0.00 | 0.00 | 87 | 1011.5 | |
| 20260507043023 | 42 | 0.0 | 0.0 | 0.00 | 0.00 | 0.00 | 88 | 1011.4 | |
| 20260507042522 | 42 | 0.0 | 0.0 | 0.00 | 0.00 | 0.00 | 87 | 1011.5 | |
| 20260507042019 | 42 | 0.0 | 0.0 | 0.00 | 0.00 | 0.00 | 88 | 1011.4 | |
| 20260507041559 | 41 | 0.0 | 0.0 | 0.00 | 0.00 | 0.00 | 88 | 1011.4 | |
| 20260507041017 | 41 | 0.0 | 0.0 | 0.00 | 0.00 | 0.00 | 89 | 1011.4 | |
| 20260507040535 | 42 | 0.0 | 0.0 | 0.00 | 0.00 | 0.00 | 89 | 1011.4 | |
| 20260507040033 | 42 | 0.0 | 0.0 | 0.00 | 0.00 | 0.00 | 89 | 1011.4 | |
| 20260507035531 | 42 | 0.0 | 0.0 | 0.00 | 0.00 | 0.00 | 88 | 1011.2 | |
| 20260507035050 | 42 | 0.0 | 0.0 | 0.00 | 0.00 | 0.00 | 88 | 1011.2 | |
| 20260507034528 | 42 | 0.0 | 0.0 | 0.00 | 0.00 | 0.00 | 88 | 1011.3 | |
| 20260507034026 | 42 | 0.0 | 0.0 | 0.00 | 0.00 | 0.00 | 88 | 1011.2 | |
| 20260507033525 | 42 | 0.0 | 0.0 | 0.00 | 0.00 | 0.00 | 88 | 1011.2 | |
| 20260507033023 | 42 | 0.0 | 0.0 | 0.00 | 0.00 | 0.00 | 88 | 1011.1 | |
| 20260507032522 | 42 | 0.0 | 0.0 | 0.00 | 0.00 | 0.00 | 87 | 1011.1 | |
| 20260507032020 | 42 | 0.0 | 0.0 | 0.00 | 0.00 | 0.00 | 87 | 1010.9 | |
| 20260507031518 | 42 | 1 | 1.0 | 4.0 | 0.00 | 0.00 | 0.00 | 86 | 1010.9 |
| 20260507031017 | 42 | 319 | 1.0 | 4.0 | 0.00 | 0.00 | 0.00 | 86 | 1010.9 |
| 20260507030555 | 43 | 0.0 | 0.0 | 0.00 | 0.00 | 0.00 | 85 | 1011.0 | |
| 20260507030033 | 43 | 0.0 | 0.0 | 0.00 | 0.00 | 0.00 | 85 | 1011.1 | |
| 20260507025552 | 43 | 0.0 | 0.0 | 0.00 | 0.00 | 0.00 | 85 | 1011.1 | |
| 20260507025030 | 43 | 0.0 | 0.0 | 0.00 | 0.00 | 0.00 | 85 | 1011.2 | |
| 20260507024609 | 42 | 0.0 | 0.0 | 0.00 | 0.00 | 0.00 | 85 | 1011.2 | |
| 20260507024027 | 43 | 346 | 0.0 | 2.0 | 0.00 | 0.00 | 0.00 | 84 | 1011.2 |
| 20260507023547 | 44 | 347 | 0.0 | 2.0 | 0.00 | 0.00 | 0.00 | 83 | 1011.2 |
| 20260507023023 | 44 | 0.0 | 0.0 | 0.00 | 0.00 | 0.00 | 82 | 1011.1 | |
| 20260507022522 | 44 | 0.0 | 0.0 | 0.00 | 0.00 | 0.00 | 82 | 1011.0 | |
| 20260507022020 | 44 | 215 | 0.0 | 1.0 | 0.00 | 0.00 | 0.00 | 80 | 1011.1 |
| 20260507021518 | 44 | 231 | 0.0 | 1.0 | 0.00 | 0.00 | 0.00 | 82 | 1011.0 |
| 20260507021016 | 43 | 232 | 0.0 | 1.0 | 0.00 | 0.00 | 0.00 | 82 | 1011.1 |
| 20260507020535 | 43 | 0.0 | 0.0 | 0.00 | 0.00 | 0.00 | 84 | 1011.0 | |
| 20260507020053 | 43 | 0.0 | 0.0 | 0.00 | 0.00 | 0.00 | 85 | 1011.1 | |
| 20260507015551 | 42 | 0.0 | 0.0 | 0.00 | 0.00 | 0.00 | 85 | 1011.1 | |
| 20260507015030 | 42 | 0.0 | 0.0 | 0.00 | 0.00 | 0.00 | 85 | 1011.0 | |
| 20260507014528 | 42 | 0.0 | 0.0 | 0.00 | 0.00 | 0.00 | 85 | 1010.9 | |
| 20260507014046 | 42 | 0.0 | 0.0 | 0.00 | 0.00 | 0.00 | 84 | 1010.8 | |
| 20260507013525 | 42 | 0.0 | 0.0 | 0.00 | 0.00 | 0.00 | 85 | 1010.8 | |
| 20260507013043 | 43 | 0.0 | 0.0 | 0.00 | 0.00 | 0.00 | 85 | 1010.6 | |
| 20260507012522 | 43 | 0.0 | 0.0 | 0.00 | 0.00 | 0.00 | 85 | 1010.6 | |
| 20260507012020 | 43 | 0.0 | 0.0 | 0.00 | 0.00 | 0.00 | 84 | 1010.6 | |
| 20260507011538 | 43 | 0.0 | 0.0 | 0.00 | 0.00 | 0.00 | 84 | 1010.5 | |
| 20260507011016 | 44 | 0.0 | 0.0 | 0.00 | 0.00 | 0.00 | 84 | 1010.6 | |
| 20260507010555 | 44 | 0.0 | 0.0 | 0.00 | 0.00 | 0.00 | 82 | 1010.7 | |
| 20260507010033 | 44 | 0.0 | 0.0 | 0.00 | 0.00 | 0.00 | 81 | 1010.7 | |
| 20260507005532 | 45 | 0.0 | 0.0 | 0.00 | 0.00 | 0.00 | 81 | 1010.7 | |
| 20260507005050 | 45 | 0.0 | 0.0 | 0.00 | 0.00 | 0.00 | 80 | 1010.7 | |
| 20260507004548 | 45 | 0.0 | 0.0 | 0.00 | 0.00 | 0.00 | 80 | 1010.7 | |
| 20260507004026 | 45 | 0.0 | 0.0 | 0.00 | 0.00 | 0.00 | 80 | 1010.7 | |
| 20260507003524 | 45 | 0.0 | 0.0 | 0.00 | 0.00 | 0.00 | 79 | 1010.7 | |
| 20260507003023 | 45 | 0.0 | 0.0 | 0.00 | 0.00 | 0.00 | 80 | 1010.6 | |
| 20260507002542 | 45 | 0.0 | 0.0 | 0.00 | 0.00 | 0.00 | 79 | 1010.6 | |
| 20260507002019 | 45 | 0.0 | 0.0 | 0.00 | 0.00 | 0.00 | 79 | 1010.6 | |
| 20260507001517 | 45 | 0.0 | 0.0 | 0.00 | 0.00 | 0.00 | 78 | 1010.4 | |
| 20260507001016 | 45 | 0.0 | 0.0 | 0.00 | 0.00 | 0.00 | 77 | 1010.5 | |
| 20260507000557 | 45 | 0.0 | 0.0 | 0.00 | 0.00 | 0.00 | 75 | 1010.5 | |
| 20260507000033 | 45 | 0.0 | 0.0 | 0.00 | 0.00 | 0.00 | 76 | 1010.6 | |
| 20260506235531 | 45 | 0.0 | 0.0 | 0.00 | 0.00 | 0.00 | 78 | 1010.5 | |
| 20260506235029 | 45 | 0.0 | 0.0 | 0.00 | 0.00 | 0.00 | 76 | 1010.4 | |
| 20260506234528 | 45 | 0.0 | 0.0 | 0.00 | 0.00 | 0.00 | 75 | 1010.5 | |
| 20260506234027 | 45 | 0.0 | 0.0 | 0.00 | 0.00 | 0.00 | 77 | 1010.5 | |
| 20260506233544 | 44 | 0.0 | 0.0 | 0.00 | 0.00 | 0.00 | 78 | 1010.5 | |
| 20260506233025 | 44 | 0.0 | 0.0 | 0.00 | 0.00 | 0.00 | 78 | 1010.5 | |
| 20260506232521 | 45 | 0.0 | 0.0 | 0.00 | 0.00 | 0.00 | 78 | 1010.4 | |
| 20260506232019 | 45 | 0.0 | 0.0 | 0.00 | 0.00 | 0.00 | 78 | 1010.3 | |
| 20260506231518 | 45 | 0.0 | 0.0 | 0.00 | 0.00 | 0.00 | 78 | 1010.3 | |
| 20260506231016 | 45 | 0.0 | 0.0 | 0.00 | 0.00 | 0.00 | 77 | 1010.3 | |
| 20260506230536 | 46 | 0.0 | 0.0 | 0.00 | 0.00 | 0.00 | 76 | 1010.3 | |
| 20260506230033 | 46 | 0.0 | 0.0 | 0.00 | 0.00 | 0.00 | 74 | 1010.3 | |
| 20260506225531 | 47 | 0.0 | 0.0 | 0.00 | 0.00 | 0.00 | 72 | 1010.3 | |
| 20260506225050 | 47 | 190 | 1.0 | 2.0 | 0.00 | 0.00 | 0.00 | 72 | 1010.2 |
| 20260506224528 | 47 | 211 | 1.0 | 2.0 | 0.00 | 0.00 | 0.00 | 71 | 1010.1 |
| 20260506224026 | 47 | 207 | 0.0 | 1.0 | 0.00 | 0.00 | 0.00 | 72 | 1010.2 |
| 20260506223524 | 47 | 200 | 0.0 | 1.0 | 0.00 | 0.00 | 0.00 | 72 | 1010.3 |
| 20260506223023 | 47 | 0.0 | 0.0 | 0.00 | 0.00 | 0.00 | 72 | 1010.3 | |
| 20260506222522 | 47 | 228 | 0.0 | 1.0 | 0.00 | 0.00 | 0.00 | 71 | 1010.3 |
| 20260506222019 | 47 | 223 | 0.0 | 1.0 | 0.00 | 0.00 | 0.00 | 72 | 1010.3 |
| 20260506221519 | 47 | 0.0 | 0.0 | 0.00 | 0.00 | 0.00 | 73 | 1010.3 | |
| 20260506221036 | 47 | 0.0 | 0.0 | 0.00 | 0.00 | 0.00 | 72 | 1010.3 | |
| 20260506220534 | 48 | 0.0 | 0.0 | 0.00 | 0.00 | 0.00 | 73 | 1010.5 | |
| 20260506220033 | 48 | 0.0 | 0.0 | 0.00 | 0.00 | 0.00 | 72 | 1010.4 | |
| 20260506215531 | 48 | 0.0 | 0.0 | 0.00 | 0.00 | 0.00 | 72 | 1010.4 | |
| 20260506215029 | 48 | 332 | 0.0 | 1.0 | 0.00 | 0.00 | 0.00 | 69 | 1010.4 |
| 20260506214548 | 48 | 0.0 | 0.0 | 0.00 | 0.00 | 0.00 | 69 | 1010.3 | |
| 20260506214026 | 48 | 0.0 | 0.0 | 0.00 | 0.00 | 0.00 | 70 | 1010.2 | |
| 20260506213524 | 48 | 346 | 1.0 | 4.0 | 0.00 | 0.00 | 0.00 | 68 | 1010.3 |
| 20260506213023 | 48 | 7 | 0.0 | 1.0 | 0.00 | 0.00 | 0.00 | 68 | 1010.3 |
| 20260506212541 | 49 | 360 | 1.0 | 6.0 | 0.00 | 0.00 | 0.00 | 67 | 1010.1 |
| 20260506212019 | 49 | 335 | 1.0 | 3.0 | 0.00 | 0.00 | 0.00 | 67 | 1010.1 |
| 20260506211517 | 49 | 356 | 2.0 | 4.0 | 0.00 | 0.00 | 0.00 | 66 | 1010.0 |
| 20260506211016 | 49 | 354 | 2.0 | 3.0 | 0.00 | 0.00 | 0.00 | 66 | 1010.1 |
| 20260506210534 | 49 | 16 | 2.0 | 4.0 | 0.00 | 0.00 | 0.00 | 65 | 1010.0 |
| 20260506210032 | 49 | 345 | 0.0 | 1.0 | 0.00 | 0.00 | 0.00 | 73 | 1009.9 |
| 20260506205530 | 49 | 0.0 | 0.0 | 0.00 | 0.00 | 0.00 | 74 | 1009.8 | |
| 20260506205029 | 49 | 0.0 | 0.0 | 0.00 | 0.00 | 0.00 | 72 | 1009.9 | |
| 20260506204527 | 49 | 192 | 0.0 | 1.0 | 0.00 | 0.00 | 0.00 | 72 | 1009.9 |
| 20260506204105 | 49 | 0.0 | 0.0 | 0.00 | 0.00 | 0.00 | 71 | 1009.8 | |
| 20260506203527 | 49 | 228 | 0.0 | 1.0 | 0.00 | 0.00 | 0.00 | 72 | 1009.7 |
| 20260506203022 | 49 | 10 | 1.0 | 2.0 | 0.00 | 0.00 | 0.00 | 72 | 1009.5 |
| 20260506202520 | 49 | 0.0 | 0.0 | 0.00 | 0.00 | 0.00 | 72 | 1009.6 | |
| 20260506202059 | 49 | 0.0 | 0.0 | 0.00 | 0.00 | 0.00 | 70 | 1009.6 | |
| 20260506201516 | 49 | 0.0 | 0.0 | 0.00 | 0.00 | 0.00 | 72 | 1009.3 | |
| 20260506201035 | 49 | 0.0 | 0.0 | 0.00 | 0.00 | 0.00 | 71 | 1009.2 | |
| 20260506200533 | 49 | 0.0 | 0.0 | 0.00 | 0.00 | 0.00 | 71 | 1009.1 | |
| 20260506200031 | 49 | 0.0 | 0.0 | 0.00 | 0.00 | 0.00 | 71 | 1008.9 | |
| 20260506195529 | 49 | 0.0 | 0.0 | 0.00 | 0.00 | 0.00 | 72 | 1008.8 | |
| 20260506195028 | 49 | 0.0 | 0.0 | 0.00 | 0.00 | 0.00 | 70 | 1008.7 | |
| 20260506194528 | 49 | 0.0 | 0.0 | 0.00 | 0.00 | 0.00 | 70 | 1008.8 | |
| 20260506194024 | 50 | 0.0 | 0.0 | 0.00 | 0.00 | 0.00 | 70 | 1008.6 | |
| 20260506193522 | 50 | 0.0 | 0.0 | 0.00 | 0.00 | 0.00 | 70 | 1008.6 | |
| 20260506193020 | 50 | 0.0 | 0.0 | 0.00 | 0.00 | 0.00 | 69 | 1008.5 | |
| 20260506192519 | 50 | 0.0 | 0.0 | 0.00 | 0.00 | 0.00 | 68 | 1008.5 | |
| 20260506192037 | 50 | 0.0 | 0.0 | 0.00 | 0.00 | 0.00 | 69 | 1008.5 | |
| 20260506191534 | 51 | 0.0 | 0.0 | 0.00 | 0.00 | 0.00 | 68 | 1008.4 | |
| 20260506191033 | 51 | 0.0 | 0.0 | 0.00 | 0.00 | 0.00 | 67 | 1008.4 | |
| 20260506190553 | 51 | 151 | 0.0 | 1.0 | 0.00 | 0.00 | 0.00 | 66 | 1008.2 |
| 20260506190029 | 51 | 346 | 0.0 | 1.0 | 0.00 | 0.00 | 0.00 | 64 | 1008.2 |
| 20260506185527 | 52 | 5 | 0.0 | 2.0 | 0.00 | 0.00 | 0.00 | 63 | 1008.1 |
| 20260506185026 | 52 | 0.0 | 0.0 | 0.00 | 0.00 | 0.00 | 61 | 1008.0 | |
| 20260506184523 | 52 | 217 | 0.0 | 2.0 | 0.00 | 0.00 | 0.00 | 60 | 1008.0 |
| 20260506184022 | 52 | 194 | 1.0 | 4.0 | 0.00 | 0.00 | 0.00 | 59 | 1007.9 |
| 20260506183520 | 53 | 349 | 2.0 | 4.0 | 0.00 | 0.00 | 0.00 | 59 | 1007.8 |
| 20260506183018 | 54 | 326 | 1.0 | 3.0 | 0.00 | 0.00 | 0.00 | 58 | 1007.8 |
| 20260506182517 | 54 | 159 | 0.0 | 1.0 | 0.00 | 0.00 | 0.00 | 61 | 1007.8 |
| 20260506182035 | 54 | 17 | 0.0 | 3.0 | 0.00 | 0.00 | 0.00 | 59 | 1007.7 |
| 20260506181533 | 54 | 0.0 | 0.0 | 0.00 | 0.00 | 0.00 | 65 | 1007.6 | |
| 20260506181031 | 54 | 359 | 1.0 | 3.0 | 0.00 | 0.00 | 0.00 | 63 | 1007.5 |
| 20260506180529 | 54 | 186 | 0.0 | 3.0 | 0.00 | 0.00 | 0.00 | 62 | 1007.2 |
| 20260506180048 | 54 | 205 | 0.0 | 1.0 | 0.00 | 0.00 | 0.00 | 61 | 1007.0 |
| 20260506175525 | 55 | 0.0 | 0.0 | 0.00 | 0.00 | 0.00 | 62 | 1007.0 | |
| 20260506175103 | 56 | 25 | 1.0 | 3.0 | 0.00 | 0.00 | 0.00 | 59 | 1006.8 |
| 20260506174521 | 56 | 12 | 2.0 | 7.0 | 0.00 | 0.00 | 0.00 | 55 | 1006.7 |
| 20260506174019 | 56 | 0 | 1.0 | 3.0 | 0.00 | 0.00 | 0.00 | 54 | 1006.6 |
| 20260506173517 | 56 | 21 | 1.0 | 4.0 | 0.00 | 0.00 | 0.00 | 54 | 1006.4 |
| 20260506173016 | 55 | 28 | 0.0 | 6.0 | 0.00 | 0.00 | 0.00 | 61 | 1006.5 |
| 20260506172534 | 55 | 38 | 0.0 | 1.0 | 0.00 | 0.00 | 0.00 | 64 | 1006.4 |
| 20260506172032 | 56 | 0.0 | 0.0 | 0.00 | 0.00 | 0.00 | 65 | 1006.4 | |
| 20260506171530 | 56 | 0.0 | 0.0 | 0.00 | 0.00 | 0.00 | 63 | 1006.3 | |
| 20260506171029 | 55 | 0.0 | 0.0 | 0.00 | 0.00 | 0.00 | 63 | 1006.3 | |
| 20260506170527 | 56 | 0.0 | 0.0 | 0.00 | 0.00 | 0.00 | 62 | 1006.2 | |
| 20260506170046 | 57 | 8 | 1.0 | 3.0 | 0.00 | 0.00 | 0.00 | 58 | 1006.2 |
| 20260506165524 | 57 | 189 | 0.0 | 2.0 | 0.00 | 0.00 | 0.00 | 55 | 1006.1 |
| 20260506165022 | 57 | 202 | 0.0 | 2.0 | 0.00 | 0.00 | 0.00 | 55 | 1006.1 |
| 20260506164520 | 57 | 0.0 | 0.0 | 0.00 | 0.00 | 0.00 | 56 | 1006.1 | |
| 20260506164039 | 57 | 0.0 | 0.0 | 0.00 | 0.00 | 0.00 | 55 | 1006.2 | |
| 20260506163537 | 58 | 0.0 | 0.0 | 0.00 | 0.00 | 0.00 | 55 | 1006.2 | |
| 20260506163035 | 57 | 21 | 0.0 | 1.0 | 0.00 | 0.00 | 0.00 | 56 | 1006.3 |
| 20260506162533 | 58 | 338 | 2.0 | 4.0 | 0.00 | 0.00 | 0.00 | 56 | 1006.2 |
| 20260506162032 | 58 | 146 | 1.0 | 3.0 | 0.00 | 0.00 | 0.00 | 53 | 1006.2 |
| 20260506161530 | 58 | 329 | 1.0 | 3.0 | 0.00 | 0.00 | 0.00 | 52 | 1006.3 |
| 20260506161028 | 56 | 295 | 1.0 | 3.0 | 0.00 | 0.00 | 0.00 | 54 | 1006.2 |
| 20260506160526 | 56 | 168 | 1.0 | 3.0 | 0.00 | 0.00 | 0.00 | 55 | 1006.2 |
| 20260506160025 | 56 | 183 | 1.0 | 3.0 | 0.00 | 0.00 | 0.00 | 58 | 1006.3 |
| 20260506155523 | 56 | 176 | 1.0 | 2.0 | 0.00 | 0.00 | 0.00 | 59 | 1006.2 |
| 20260506155021 | 56 | 183 | 2.0 | 4.0 | 0.00 | 0.00 | 0.00 | 59 | 1006.2 |
| 20260506154519 | 56 | 188 | 2.0 | 3.0 | 0.00 | 0.00 | 0.00 | 59 | 1006.2 |
| 20260506154018 | 57 | 189 | 1.0 | 3.0 | 0.00 | 0.00 | 0.00 | 58 | 1006.2 |
| 20260506153516 | 57 | 308 | 0.0 | 1.0 | 0.00 | 0.00 | 0.00 | 58 | 1006.2 |
| 20260506153034 | 56 | 359 | 1.0 | 3.0 | 0.00 | 0.00 | 0.00 | 57 | 1006.1 |
| 20260506152533 | 57 | 340 | 0.0 | 3.0 | 0.00 | 0.00 | 0.00 | 59 | 1006.2 |
| 20260506152031 | 56 | 147 | 0.0 | 1.0 | 0.00 | 0.00 | 0.00 | 58 | 1006.1 |
| 20260506151529 | 56 | 206 | 0.0 | 2.0 | 0.00 | 0.00 | 0.00 | 59 | 1006.1 |
| 20260506151028 | 56 | 172 | 1.0 | 3.0 | 0.00 | 0.00 | 0.00 | 59 | 1006.1 |
| 20260506150525 | 57 | 165 | 1.0 | 3.0 | 0.00 | 0.00 | 0.00 | 58 | 1006.2 |
| 20260506150044 | 57 | 169 | 0.0 | 2.0 | 0.00 | 0.00 | 0.00 | 58 | 1006.3 |
| 20260506145522 | 57 | 238 | 0.0 | 2.0 | 0.00 | 0.00 | 0.00 | 58 | 1006.2 |
| 20260506145020 | 56 | 222 | 1.0 | 3.0 | 0.00 | 0.00 | 0.00 | 56 | 1006.2 |
| 20260506144539 | 56 | 194 | 1.0 | 7.0 | 0.00 | 0.00 | 0.00 | 56 | 1006.1 |
| 20260506144017 | 56 | 221 | 2.0 | 8.0 | 0.00 | 0.00 | 0.00 | 57 | 1006.2 |
| 20260506143535 | 56 | 148 | 3.0 | 11.0 | 0.00 | 0.00 | 0.00 | 57 | 1006.2 |
| 20260506143034 | 57 | 159 | 3.0 | 8.0 | 0.00 | 0.00 | 0.00 | 56 | 1006.2 |
| 20260506142532 | 57 | 268 | 1.0 | 4.0 | 0.00 | 0.00 | 0.00 | 54 | 1006.1 |
| 20260506142050 | 58 | 352 | 5.0 | 9.0 | 0.00 | 0.00 | 0.00 | 50 | 1006.1 |
| 20260506141549 | 58 | 352 | 8.0 | 16.0 | 0.00 | 0.00 | 0.00 | 49 | 1006.1 |
| 20260506141027 | 58 | 5 | 10.0 | 18.0 | 0.00 | 0.00 | 0.00 | 49 | 1005.9 |
| 20260506140524 | 58 | 355 | 7.0 | 13.0 | 0.00 | 0.00 | 0.00 | 49 | 1005.8 |
| 20260506140023 | 59 | 23 | 9.0 | 18.0 | 0.00 | 0.00 | 0.00 | 48 | 1005.9 |
| 20260506135521 | 59 | 360 | 8.0 | 16.0 | 0.00 | 0.00 | 0.00 | 48 | 1005.8 |
| 20260506135019 | 59 | 7 | 8.0 | 16.0 | 0.00 | 0.00 | 0.00 | 47 | 1005.8 |
| 20260506134518 | 59 | 15 | 9.0 | 18.0 | 0.00 | 0.00 | 0.00 | 47 | 1005.8 |
| 20260506134056 | 58 | 354 | 7.0 | 14.0 | 0.00 | 0.00 | 0.00 | 47 | 1005.9 |
| 20260506133534 | 59 | 12 | 8.0 | 15.0 | 0.00 | 0.00 | 0.00 | 47 | 1006.1 |
| 20260506133033 | 59 | 10 | 8.0 | 15.0 | 0.00 | 0.00 | 0.00 | 47 | 1006.0 |
| 20260506132531 | 59 | 18 | 7.0 | 16.0 | 0.00 | 0.00 | 0.00 | 46 | 1005.9 |
| 20260506132030 | 59 | 4 | 7.0 | 13.0 | 0.00 | 0.00 | 0.00 | 46 | 1006.1 |
| 20260506131548 | 59 | 22 | 5.0 | 13.0 | 0.00 | 0.00 | 0.00 | 46 | 1005.9 |
| 20260506131026 | 59 | 33 | 6.0 | 16.0 | 0.00 | 0.00 | 0.00 | 47 | 1006.1 |
| 20260506130524 | 59 | 4 | 7.0 | 14.0 | 0.00 | 0.00 | 0.00 | 46 | 1006.2 |
| 20260506130022 | 60 | 1 | 8.0 | 16.0 | 0.00 | 0.00 | 0.00 | 44 | 1006.0 |
| 20260506125520 | 60 | 7 | 9.0 | 24.0 | 0.00 | 0.00 | 0.00 | 44 | 1005.8 |
| 20260506125039 | 61 | 360 | 8.0 | 17.0 | 0.00 | 0.00 | 0.00 | 44 | 1005.6 |
| 20260506124517 | 60 | 352 | 2.0 | 7.0 | 0.00 | 0.00 | 0.00 | 45 | 1005.8 |
| 20260506124016 | 60 | 6 | 7.0 | 19.0 | 0.00 | 0.00 | 0.00 | 44 | 1005.8 |
| 20260506123554 | 60 | 13 | 8.0 | 19.0 | 0.00 | 0.00 | 0.00 | 45 | 1005.8 |
| 20260506123052 | 62 | 23 | 10.0 | 18.0 | 0.00 | 0.00 | 0.00 | 44 | 1005.5 |
| 20260506122530 | 62 | 339 | 9.0 | 17.0 | 0.00 | 0.00 | 0.00 | 44 | 1005.6 |
| 20260506122028 | 61 | 10 | 6.0 | 14.0 | 0.00 | 0.00 | 0.00 | 44 | 1005.5 |
| 20260506121527 | 61 | 358 | 7.0 | 14.0 | 0.00 | 0.00 | 0.00 | 45 | 1005.4 |
| 20260506121025 | 60 | 7 | 8.0 | 19.0 | 0.00 | 0.00 | 0.00 | 46 | 1005.4 |
| 20260506120523 | 60 | 5 | 8.0 | 25.0 | 0.00 | 0.00 | 0.00 | 46 | 1005.6 |
| 20260506120041 | 60 | 2 | 9.0 | 18.0 | 0.00 | 0.00 | 0.00 | 47 | 1005.7 |
| 20260506115520 | 60 | 8 | 10.0 | 21.0 | 0.00 | 0.00 | 0.00 | 48 | 1005.5 |
| 20260506115018 | 59 | 18 | 7.0 | 14.0 | 0.00 | 0.00 | 0.00 | 50 | 1005.7 |
| 20260506114516 | 57 | 331 | 2.0 | 9.0 | 0.00 | 0.00 | 0.00 | 51 | 1005.9 |
| 20260506114055 | 56 | 357 | 5.0 | 11.0 | 0.00 | 0.00 | 0.00 | 54 | 1005.9 |
| 20260506113533 | 57 | 355 | 9.0 | 17.0 | 0.00 | 0.00 | 0.00 | 55 | 1005.9 |
| 20260506113031 | 57 | 0 | 6.0 | 11.0 | 0.00 | 0.00 | 0.00 | 52 | 1005.9 |
| 20260506112529 | 57 | 359 | 6.0 | 16.0 | 0.00 | 0.00 | 0.00 | 51 | 1005.8 |
| 20260506112028 | 56 | 353 | 8.0 | 14.0 | 0.00 | 0.00 | 0.00 | 51 | 1005.9 |
| 20260506111526 | 57 | 5 | 9.0 | 16.0 | 0.00 | 0.00 | 0.00 | 50 | 1005.9 |
| 20260506111024 | 57 | 2 | 5.0 | 11.0 | 0.00 | 0.00 | 0.00 | 50 | 1006.1 |
| 20260506110543 | 58 | 349 | 8.0 | 15.0 | 0.00 | 0.00 | 0.00 | 49 | 1006.0 |
| 20260506110020 | 57 | 10 | 3.0 | 13.0 | 0.00 | 0.00 | 0.00 | 50 | 1006.1 |
| 20260506105519 | 57 | 19 | 4.0 | 10.0 | 0.00 | 0.00 | 0.00 | 50 | 1006.2 |
| 20260506105017 | 57 | 11 | 4.0 | 13.0 | 0.00 | 0.00 | 0.00 | 50 | 1006.2 |
| 20260506104516 | 57 | 16 | 6.0 | 14.0 | 0.00 | 0.00 | 0.00 | 49 | 1006.3 |
| 20260506104034 | 57 | 26 | 8.0 | 13.0 | 0.00 | 0.00 | 0.00 | 49 | 1006.1 |
| 20260506103532 | 58 | 8 | 8.0 | 19.0 | 0.00 | 0.00 | 0.00 | 49 | 1006.1 |
| 20260506103030 | 58 | 15 | 10.0 | 17.0 | 0.00 | 0.00 | 0.00 | 49 | 1006.2 |
| 20260506102529 | 58 | 10 | 7.0 | 14.0 | 0.00 | 0.00 | 0.00 | 49 | 1006.5 |
| 20260506102047 | 57 | 6 | 8.0 | 17.0 | 0.00 | 0.00 | 0.00 | 49 | 1006.5 |
| 20260506101546 | 57 | 18 | 10.0 | 19.0 | 0.00 | 0.00 | 0.00 | 50 | 1006.5 |
| 20260506101024 | 57 | 18 | 10.0 | 19.0 | 0.00 | 0.00 | 0.00 | 50 | 1006.6 |
| 20260506100522 | 57 | 7 | 8.0 | 18.0 | 0.00 | 0.00 | 0.00 | 51 | 1006.6 |
| 20260506100020 | 56 | 11 | 11.0 | 21.0 | 0.00 | 0.00 | 0.00 | 52 | 1006.6 |
| 20260506095519 | 55 | 25 | 9.0 | 15.0 | 0.00 | 0.00 | 0.00 | 53 | 1006.6 |
| 20260506095016 | 55 | 24 | 10.0 | 18.0 | 0.00 | 0.00 | 0.00 | 54 | 1006.9 |
| 20260506094535 | 55 | 339 | 8.0 | 15.0 | 0.00 | 0.00 | 0.00 | 54 | 1006.9 |
| 20260506094033 | 55 | 17 | 9.0 | 16.0 | 0.00 | 0.00 | 0.00 | 55 | 1006.9 |
| 20260506093531 | 55 | 10 | 9.0 | 19.0 | 0.00 | 0.00 | 0.00 | 54 | 1006.8 |
| 20260506093029 | 54 | 4 | 7.0 | 19.0 | 0.00 | 0.00 | 0.00 | 57 | 1007.1 |
| 20260506092607 | 54 | 3 | 9.0 | 18.0 | 0.00 | 0.00 | 0.00 | 58 | 1007.3 |
| 20260506092026 | 53 | 340 | 2.0 | 7.0 | 0.00 | 0.00 | 0.00 | 59 | 1007.5 |
| 20260506091524 | 53 | 359 | 5.0 | 13.0 | 0.00 | 0.00 | 0.00 | 59 | 1007.5 |
| 20260506091022 | 53 | 13 | 7.0 | 17.0 | 0.00 | 0.00 | 0.00 | 56 | 1007.4 |
| 20260506090521 | 54 | 15 | 6.0 | 11.0 | 0.00 | 0.00 | 0.00 | 56 | 1007.3 |
| 20260506090019 | 54 | 6 | 8.0 | 16.0 | 0.00 | 0.00 | 0.00 | 57 | 1007.3 |
| 20260506085517 | 53 | 17 | 7.0 | 14.0 | 0.00 | 0.00 | 0.00 | 57 | 1007.2 |
| 20260506085015 | 53 | 28 | 3.0 | 10.0 | 0.00 | 0.00 | 0.00 | 58 | 1007.4 |
| 20260506084534 | 53 | 338 | 6.0 | 11.0 | 0.00 | 0.00 | 0.00 | 58 | 1007.5 |
| 20260506084032 | 54 | 352 | 5.0 | 14.0 | 0.00 | 0.00 | 0.00 | 57 | 1007.2 |
| 20260506083530 | 54 | 339 | 7.0 | 13.0 | 0.00 | 0.00 | 0.00 | 57 | 1007.1 |
| 20260506083028 | 54 | 348 | 3.0 | 14.0 | 0.00 | 0.00 | 0.00 | 56 | 1007.5 |
| 20260506082527 | 55 | 56 | 2.0 | 10.0 | 0.00 | 0.00 | 0.00 | 53 | 1007.6 |
| 20260506082105 | 55 | 355 | 3.0 | 11.0 | 0.00 | 0.00 | 0.00 | 52 | 1007.4 |
| 20260506081523 | 55 | 291 | 1.0 | 6.0 | 0.00 | 0.00 | 0.00 | 51 | 1007.5 |
| 20260506081021 | 55 | 12 | 2.0 | 7.0 | 0.00 | 0.00 | 0.00 | 51 | 1007.0 |
| 20260506080519 | 55 | 39 | 1.0 | 6.0 | 0.00 | 0.00 | 0.00 | 52 | 1006.8 |
| 20260506073028 | 51 | 0.0 | 0.0 | 0.00 | 0.00 | 0.00 | 69 | 1007.2 | |
| 20260506072526 | 50 | 181 | 1.0 | 3.0 | 0.00 | 0.00 | 0.00 | 70 | 1007.4 |
| 20260506072044 | 50 | 318 | 1.0 | 2.0 | 0.00 | 0.00 | 0.00 | 68 | 1007.4 |
| 20260506071523 | 49 | 176 | 0.0 | 2.0 | 0.00 | 0.00 | 0.00 | 68 | 1007.3 |
| 20260506071021 | 49 | 34 | 0.0 | 1.0 | 0.00 | 0.00 | 0.00 | 69 | 1007.5 |
| 20260506070539 | 49 | 0.0 | 0.0 | 0.00 | 0.00 | 0.00 | 68 | 1007.5 | |
| 20260506062044 | 47 | 338 | 0.0 | 1.0 | 0.00 | 0.00 | 0.00 | 74 | 1008.0 |
| 20260506061521 | 47 | 6 | 0.0 | 1.0 | 0.00 | 0.00 | 0.00 | 74 | 1008.0 |
| 20260506061020 | 46 | 0.0 | 0.0 | 0.00 | 0.00 | 0.00 | 76 | 1008.0 | |
| 20260506060518 | 45 | 0.0 | 0.0 | 0.00 | 0.00 | 0.00 | 76 | 1007.9 |